Great Bend, KS

11:55 AM CDT on April 28, 2017 (GMT -0500)
Great Bend Municipal

Weather History for KGBD - September, 2013

Change the Weather History Date:

Sunday, September 8, 2013

  Actual Average Record
Temperature  
Mean Temperature 86 °F -  
Max Temperature 102 °F 89 °F 104 °F (1971)
Min Temperature 69 °F 62 °F 46 °F (2012)
Cooling Degree Days 20    
Growing Degree Days 36 (Base 50)    
Moisture  
Dew Point 59 °F    
Average Humidity 45    
Maximum Humidity 73    
Minimum Humidity 22    
Precipitation  
Precipitation 0.00 in - - ()
Sea Level Pressure  
Sea Level Pressure 29.90 in    
Wind  
Wind Speed 10 mph (SSW)    
Max Wind Speed 21 mph    
Max Gust Speed 25 mph    
Visibility 10 miles    
Events      
Averages and records for this station are not official NWS values.
T = Trace of Precipitation, MM = Missing Value Source: NWS Daily Summary

Daily Weather History Graph

Daily Weather History Graph

Search for Another Location

Airport or City:

Trip Planner

Search our weather history database for the weather conditions in past years. The results will help you decide how hot, cold, wet, or windy it might be!

Date:

Astronomy

Sep. 08, 2013 Rise Set
Actual Time 7:11 AM CDT 7:54 PM CDT
Civil Twilight 6:44 AM CDT 8:20 PM CDT
Nautical Twilight 6:12 AM CDT 8:52 PM CDT
Astronomical Twilight 5:40 AM CDT 9:24 PM CDT
Moon 10:26 AM CDT (9/8) 9:34 PM CDT (9/8)
Length of Visible Light 13h 36m
Length of Day
12h 42m
Waxing Crescent, 11% of the Moon is Illuminated
Sep 8
Waxing Crescent
Sep 12
First Quarter
Sep 19
Full
Sep 26
Last Quarter
Oct 4
New

Hourly Weather History & Observations

Time (CDT) Temp. Heat Index Dew Point Humidity Pressure Visibility Wind Dir Wind Speed Gust Speed Precip Events Conditions
12:15 AM 78.8 °F - 60.8 °F 54% 29.94 in 10.0 mi South 9.2 mph - N/A   Clear
12:35 AM 78.8 °F - 60.8 °F 54% 29.94 in 10.0 mi South 10.4 mph - N/A   Clear
12:55 AM 78.8 °F - 60.8 °F 54% 29.94 in 10.0 mi South 12.7 mph - N/A   Clear
1:15 AM 78.8 °F - 60.8 °F 54% 29.94 in 10.0 mi South 11.5 mph - N/A   Clear
1:35 AM 78.8 °F - 60.8 °F 54% 29.94 in 10.0 mi South 10.4 mph - N/A   Clear
1:55 AM 78.8 °F - 60.8 °F 54% 29.94 in 10.0 mi SSW 9.2 mph - N/A   Clear
2:15 AM 78.8 °F - 60.8 °F 54% 29.94 in 10.0 mi SSW 9.2 mph - N/A   Clear
2:35 AM 75.2 °F - 60.8 °F 61% 29.94 in 10.0 mi SSW 10.4 mph - N/A   Clear
2:55 AM 75.2 °F - 60.8 °F 61% 29.94 in 10.0 mi SSW 8.1 mph - N/A   Clear
3:15 AM 73.4 °F - 60.8 °F 65% 29.94 in 10.0 mi SSW 8.1 mph - N/A   Clear
3:35 AM 73.4 °F - 60.8 °F 65% 29.94 in 10.0 mi SSW 6.9 mph - N/A   Clear
3:55 AM 73.4 °F - 60.8 °F 65% 29.94 in 10.0 mi SW 6.9 mph - N/A   Clear
4:15 AM 71.6 °F - 60.8 °F 69% 29.93 in 10.0 mi SSW 5.8 mph - N/A   Clear
4:35 AM 71.6 °F - 60.8 °F 69% 29.93 in 10.0 mi SSW 5.8 mph - N/A   Clear
4:55 AM 71.6 °F - 60.8 °F 69% 29.93 in 10.0 mi SSW 6.9 mph - N/A   Clear
5:15 AM 71.6 °F - 60.8 °F 69% 29.93 in 10.0 mi SSW 8.1 mph - N/A   Clear
5:35 AM 71.6 °F - 60.8 °F 69% 29.93 in 10.0 mi SSW 9.2 mph - N/A   Clear
5:55 AM 71.6 °F - 60.8 °F 69% 29.93 in 10.0 mi SSW 5.8 mph - N/A   Clear
6:15 AM 69.8 °F - 59.0 °F 68% 29.93 in 10.0 mi SSW 5.8 mph - N/A   Clear
6:35 AM 69.8 °F - 59.0 °F 68% 29.93 in 10.0 mi SSW 5.8 mph - N/A   Clear
6:55 AM 69.8 °F - 59.0 °F 68% 29.94 in 10.0 mi SW 5.8 mph - N/A   Clear
7:15 AM 69.8 °F - 59.0 °F 68% 29.94 in 10.0 mi SW 5.8 mph - N/A   Clear
7:35 AM 69.8 °F - 59.0 °F 68% 29.94 in 10.0 mi SW 3.5 mph - N/A   Clear
7:55 AM 69.8 °F - 60.8 °F 73% 29.94 in 10.0 mi SSW 4.6 mph - N/A   Clear
8:15 AM 71.6 °F - 60.8 °F 69% 29.94 in 10.0 mi SSW 3.5 mph - N/A   Clear
8:35 AM 73.4 °F - 60.8 °F 65% 29.94 in 10.0 mi SW 5.8 mph - N/A   Clear
8:55 AM 75.2 °F - 60.8 °F 61% 29.94 in 10.0 mi SW 6.9 mph - N/A   Clear
9:15 AM 78.8 °F - 60.8 °F 54% 29.94 in 10.0 mi SSW 6.9 mph - N/A   Clear
9:35 AM 80.6 °F 81.5 °F 60.8 °F 51% 29.94 in 10.0 mi SSW 5.8 mph - N/A   Clear
9:55 AM 82.4 °F 82.9 °F 60.8 °F 48% 29.93 in 10.0 mi SSW 6.9 mph - N/A   Clear
10:15 AM 84.2 °F 84.4 °F 60.8 °F 45% 29.94 in 10.0 mi SSW 8.1 mph - N/A   Clear
10:35 AM 87.8 °F 87.6 °F 60.8 °F 40% 29.93 in 10.0 mi SSW 5.8 mph - N/A   Clear
10:55 AM 89.6 °F 89.5 °F 60.8 °F 38% 29.93 in 10.0 mi SW 4.6 mph - N/A   Clear
11:15 AM 91.4 °F 91.4 °F 60.8 °F 36% 29.93 in 10.0 mi WSW 5.8 mph - N/A   Clear
11:35 AM 93.2 °F 93.3 °F 60.8 °F 34% 29.92 in 10.0 mi SW 9.2 mph - N/A   Clear
11:55 AM 95.0 °F 95.2 °F 60.8 °F 32% 29.92 in 10.0 mi SW 9.2 mph - N/A   Clear
12:15 PM 96.8 °F 96.2 °F 59.0 °F 28% 29.91 in 10.0 mi SSW 10.4 mph - N/A   Clear
12:35 PM 98.6 °F 97.6 °F 57.2 °F 25% 29.90 in 10.0 mi SSW 10.4 mph - N/A   Clear
12:55 PM 98.6 °F 97.6 °F 57.2 °F 25% 29.90 in 10.0 mi SSW 9.2 mph - N/A   Clear
1:15 PM 100.4 °F 99.7 °F 57.2 °F 24% 29.89 in 10.0 mi South 11.5 mph 19.6 mph N/A   Clear
1:35 PM 100.4 °F 99.7 °F 57.2 °F 24% 29.89 in 10.0 mi SSE 15.0 mph - N/A   Clear
1:55 PM 100.4 °F 99.7 °F 57.2 °F 24% 29.89 in 10.0 mi SSE 13.8 mph 19.6 mph N/A   Clear
2:15 PM 102.2 °F 101.4 °F 57.2 °F 22% 29.88 in 10.0 mi SSE 12.7 mph 19.6 mph N/A   Clear
2:35 PM 100.4 °F 99.7 °F 57.2 °F 24% 29.88 in 10.0 mi South 17.3 mph 23.0 mph N/A   Clear
2:55 PM 100.4 °F 99.7 °F 57.2 °F 24% 29.87 in 10.0 mi South 18.4 mph 23.0 mph N/A   Clear
3:15 PM 100.4 °F 99.7 °F 57.2 °F 24% 29.86 in 10.0 mi South 17.3 mph 21.9 mph N/A   Clear
3:35 PM 100.4 °F 99.7 °F 57.2 °F 24% 29.86 in 10.0 mi SSE 16.1 mph 24.2 mph N/A   Clear
3:55 PM 100.4 °F 98.8 °F 55.4 °F 22% 29.86 in 10.0 mi South 12.7 mph - N/A   Clear
4:15 PM 100.4 °F 99.7 °F 57.2 °F 24% 29.84 in 10.0 mi South 16.1 mph 25.3 mph N/A   Clear
4:35 PM 100.4 °F 99.7 °F 57.2 °F 24% 29.84 in 10.0 mi South 20.7 mph 25.3 mph N/A   Clear
4:55 PM 100.4 °F 99.7 °F 57.2 °F 24% 29.84 in 10.0 mi South 17.3 mph 21.9 mph N/A   Clear
5:15 PM 100.4 °F 99.7 °F 57.2 °F 24% 29.84 in 10.0 mi SSW 17.3 mph - N/A   Clear
5:35 PM 100.4 °F 99.7 °F 57.2 °F 24% 29.84 in 10.0 mi South 16.1 mph 23.0 mph N/A   Clear
5:55 PM 98.6 °F 97.2 °F 55.4 °F 24% 29.84 in 10.0 mi South 15.0 mph - N/A   Clear
6:15 PM 98.6 °F 97.6 °F 57.2 °F 25% 29.84 in 10.0 mi South 15.0 mph 20.7 mph N/A   Clear
6:35 PM 96.8 °F 95.8 °F 57.2 °F 27% 29.83 in 10.0 mi South 17.3 mph 20.7 mph N/A   Clear
6:55 PM 96.8 °F 95.8 °F 57.2 °F 27% 29.84 in 10.0 mi South 12.7 mph 20.7 mph N/A   Clear
7:15 PM 93.2 °F 92.6 °F 59.0 °F 32% 29.84 in 10.0 mi South 11.5 mph - N/A   Clear
7:35 PM 91.4 °F 89.9 °F 57.2 °F 31% 29.84 in 10.0 mi South 11.5 mph - N/A   Clear
7:55 PM 89.6 °F 88.9 °F 59.0 °F 36% 29.84 in 10.0 mi South 11.5 mph - N/A   Clear
8:15 PM 86.0 °F 85.4 °F 59.0 °F 40% 29.85 in 10.0 mi South 10.4 mph - N/A   Clear
8:35 PM 82.4 °F 82.5 °F 59.0 °F 45% 29.85 in 10.0 mi South 10.4 mph - N/A   Clear
8:55 PM 82.4 °F 82.5 °F 59.0 °F 45% 29.86 in 10.0 mi South 10.4 mph - N/A   Clear
9:15 PM 80.6 °F 81.1 °F 59.0 °F 48% 29.86 in 10.0 mi SSE 8.1 mph - N/A   Clear
9:35 PM 78.8 °F - 59.0 °F 51% 29.86 in 10.0 mi South 10.4 mph - N/A   Clear
9:55 PM 78.8 °F - 59.0 °F 51% 29.87 in 10.0 mi South 10.4 mph - N/A   Clear
10:15 PM 80.6 °F 81.1 °F 59.0 °F 48% 29.87 in 10.0 mi South 11.5 mph - N/A   Clear
10:35 PM 80.6 °F 81.1 °F 59.0 °F 48% 29.87 in 10.0 mi South 13.8 mph - N/A   Clear
10:55 PM 82.4 °F 82.0 °F 57.2 °F 42% 29.88 in 10.0 mi South 13.8 mph - N/A   Clear
11:15 PM 80.6 °F 80.8 °F 57.2 °F 45% 29.88 in 10.0 mi South 15.0 mph - N/A   Clear
11:35 PM 80.6 °F 80.8 °F 57.2 °F 45% 29.88 in 10.0 mi South 15.0 mph - N/A   Clear
11:55 PM 80.6 °F 80.8 °F 57.2 °F 45% 29.88 in 10.0 mi South 15.0 mph - N/A   Clear